H1 CPF 2 NER 2020 11 12 9 317 01 glonass142 H2 2001801 9142 45358 2020 11 12 0 0 0 2020 11 15 23 45 0 900 1 1 0 0 0 1 H9 10 0 59165 0.00000 0 10400776.288 -15011713.692 -17799143.713 10 0 59165 900.00000 0 12132451.867 -16139412.051 -15582555.775 10 0 59165 1800.00000 0 13534578.515 -17228492.680 -13063173.282 10 0 59165 2700.00000 0 14595042.680 -18218440.998 -10290029.836 10 0 59165 3600.00000 0 15314825.817 -19049527.073 -7317057.831 10 0 59165 4500.00000 0 15707708.179 -19665408.621 -4202035.336 10 0 59165 5400.00000 0 15799444.813 -20015607.244 -1005460.427 10 0 59165 6300.00000 0 15626450.202 -20057753.569 2210624.907 10 0 59165 7200.00000 0 15234048.580 -19759506.924 5383838.038 10 0 59165 8100.00000 0 14674365.030 -19100069.020 8452662.716 10 0 59165 9000.00000 0 14003947.239 -18071228.242 11357636.550 10 0 59165 9900.00000 0 13281218.609 -16677890.930 14042496.073 10 0 59165 10800.00000 0 12563870.107 -14938077.341 16455257.843 10 0 59165 11700.00000 0 11906300.478 -12882382.354 18549215.410 10 0 59165 12600.00000 0 11357211.955 -10552922.998 20283833.752 10 0 59165 13500.00000 0 10957461.854 -8001815.926 21625524.985 10 0 59165 14400.00000 0 10738259.565 -5289247.154 22548291.380 10 0 59165 15300.00000 0 10719784.017 -2481212.929 23034224.160 10 0 59165 16200.00000 0 10910279.233 352976.082 23073849.110 10 0 59165 17100.00000 0 11305665.922 3143325.533 22666312.701 10 0 59165 18000.00000 0 11889685.764 5821815.651 21819405.033 10 0 59165 18900.00000 0 12634573.142 8324978.443 20549418.709 10 0 59165 19800.00000 0 13502227.238 10596288.394 18880845.493 10 0 59165 20700.00000 0 14445836.640 12588268.376 16845915.466 10 0 59165 21600.00000 0 15411889.557 14264223.986 14483986.244 10 0 59165 22500.00000 0 16342486.384 15599534.483 11840792.646 10 0 59165 23400.00000 0 17177858.214 16582446.419 8967570.098 10 0 59165 24300.00000 0 17858985.688 17214336.688 5920067.701 10 0 59165 25200.00000 0 18330207.744 17509433.687 2757469.394 10 0 59165 26100.00000 0 18541709.596 17494008.051 -458756.067 10 0 59165 27000.00000 0 18451783.844 17205066.920 -3666053.785 10 0 59165 27900.00000 0 18028767.721 16688606.911 -6802006.257 10 0 59165 28800.00000 0 17252572.950 15997499.892 -9805556.964 10 0 59165 29700.00000 0 16115741.773 15189101.561 -12618209.143 10 0 59165 30600.00000 0 14623982.774 14322684.793 -15185175.298 10 0 59165 31500.00000 0 12796162.336 13456807.294 -17456453.843 10 0 59165 32400.00000 0 10663750.689 12646725.955 -19387811.055 10 0 59165 33300.00000 0 8269744.776 11941968.138 -20941648.499 10 0 59165 34200.00000 0 5667112.417 11384163.351 -22087738.602 10 0 59165 35100.00000 0 2916822.481 11005227.432 -22803813.965 10 0 59165 36000.00000 0 85543.146 10825976.087 -23075999.048 10 0 59165 36900.00000 0 -2756895.709 10855226.293 -22899076.170 10 0 59165 37800.00000 0 -5540170.243 11089423.084 -22276581.099 10 0 59165 38700.00000 0 -8196149.608 11512806.922 -21220726.892 10 0 59165 39600.00000 0 -10661490.417 12098113.911 -19752158.004 10 0 59165 40500.00000 0 -12880031.275 12807778.514 -17899539.991 10 0 59165 41400.00000 0 -14804888.475 13595587.287 -15698993.218 10 0 59165 42300.00000 0 -16400166.494 14408713.107 -13193382.094 10 0 59165 43200.00000 0 -17642213.403 15190043.380 -10431474.061 10 0 59165 44100.00000 0 -18520370.339 15880703.478 -7466985.090 10 0 59165 45000.00000 0 -19037185.482 16422668.430 -4357530.714 10 0 59165 45900.00000 0 -19208085.551 16761352.416 -1163503.382 10 0 59165 46800.00000 0 -19060520.464 16848066.670 2053101.746 10 0 59165 47700.00000 0 -18632618.877 16642242.115 5229889.365 10 0 59165 48600.00000 0 -17971412.633 16113323.164 8305271.512 10 0 59165 49500.00000 0 -17130706.025 15242253.070 11219656.639 10 0 59165 50400.00000 0 -16168680.258 14022488.505 13916597.379 10 0 59165 51300.00000 0 -15145334.238 12460500.762 16343875.363 10 0 59165 52200.00000 0 -14119869.077 10575742.301 18454502.812 10 0 59165 53100.00000 0 -13148125.844 8400079.641 20207622.404 10 0 59165 54000.00000 0 -12280183.462 5976715.547 21569289.159 10 0 59165 54900.00000 0 -11558216.524 3358644.253 22513120.226 10 0 59165 55800.00000 0 -11014702.029 606702.649 23020800.899 10 0 59165 56700.00000 0 -10671049.367 -2212703.273 23082437.855 10 0 59165 57600.00000 0 -10536710.492 -5030104.207 22696753.105 10 0 59165 58500.00000 0 -10608807.389 -7775603.404 21871114.902 10 0 59165 59400.00000 0 -10872292.671 -10381535.089 20621404.565 10 0 59165 60300.00000 0 -11300637.166 -12785036.754 18971720.954 10 0 59165 61200.00000 0 -11857016.525 -14930429.658 16953927.172 10 0 59165 62100.00000 0 -12495948.049 -16771309.483 14607046.929 10 0 59165 63000.00000 0 -13165309.935 -18272260.577 11976520.804 10 0 59165 63900.00000 0 -13808658.821 -19410122.294 9113335.568 10 0 59165 64800.00000 0 -14367748.493 -20174754.331 6073042.346 10 0 59165 65700.00000 0 -14785143.601 -20569268.618 2914681.899 10 0 59165 66600.00000 0 -15006817.614 -20609717.555 -300362.326 10 0 59165 67500.00000 0 -14984624.328 -20324251.342 -3509560.988 10 0 59165 68400.00000 0 -14678537.139 -19751779.745 -6650461.698 10 0 59165 69300.00000 0 -14058559.715 -18940194.763 -9661913.173 10 0 59165 70200.00000 0 -13106225.500 -17944229.612 -12485265.817 10 0 59165 71100.00000 0 -11815620.752 -16823045.063 -15065524.210 10 0 59165 72000.00000 0 -10193886.199 -15637645.901 -17352427.877 10 0 59165 72900.00000 0 -8261174.524 -14448237.554 -19301438.360 10 0 59165 73800.00000 0 -6050064.104 -13311635.358 -20874612.710 10 0 59165 74700.00000 0 -3604452.645 -12278836.559 -22041345.883 10 0 59165 75600.00000 0 -977976.316 -11392857.951 -22778967.515 10 0 59165 76500.00000 0 1767979.961 -10686930.477 -23073181.588 10 0 59165 77400.00000 0 4566598.132 -10183126.749 -22918340.706 10 0 59165 78300.00000 0 7348172.158 -9891478.815 -22317550.147 10 0 59165 79200.00000 0 10042776.700 -9809622.544 -21282600.157 10 0 59165 80100.00000 0 12582948.356 -9922982.673 -19833728.343 10 0 59165 81000.00000 0 14906268.070 -10205489.569 -17999217.311 10 0 59165 81900.00000 0 16957737.765 -10620796.327 -15814835.838 10 0 59165 82800.00000 0 18691852.774 -11123943.753 -13323134.915 10 0 59165 83700.00000 0 20074284.731 -11663401.887 -10572612.807 10 0 59165 84600.00000 0 21083105.962 -12183401.008 -7616765.709 10 0 59165 85500.00000 0 21709505.595 -12626452.914 -4513042.994 10 0 59166 0.00000 0 21957969.196 -12935955.502 -1321727.759 10 0 59166 900.00000 0 21845915.946 -13058769.954 1895235.632 10 0 59166 1800.00000 0 21402810.683 -12947662.491 5075442.861 10 0 59166 2700.00000 0 20668788.893 -12563505.940 8157237.728 10 0 59166 3600.00000 0 19692854.519 -11877150.154 11080902.657 10 0 59166 4500.00000 0 18530726.583 -10870881.319 13789809.067 10 0 59166 5400.00000 0 17242425.816 -9539409.341 16231505.837 10 0 59166 6300.00000 0 15889702.577 -7890341.473 18358725.504 10 0 59166 7200.00000 0 14533413.699 -5944122.010 20130289.618 10 0 59166 8100.00000 0 13230957.489 -3733439.853 21511896.796 10 0 59166 9000.00000 0 12033873.415 -1302127.532 22476779.311 10 0 59166 9900.00000 0 10985705.900 1296403.664 23006216.408 10 0 59166 10800.00000 0 10120220.543 4001129.157 23089895.160 10 0 59166 11700.00000 0 9460046.484 6745697.303 22726112.307 10 0 59166 12600.00000 0 9015801.130 9460943.344 21921813.148 10 0 59166 13500.00000 0 8785733.550 12077528.683 20692466.341 10 0 59166 14400.00000 0 8755901.547 14528597.630 19061776.228 10 0 59166 15300.00000 0 8900875.406 16752342.620 17061237.091 10 0 59166 16200.00000 0 9184939.392 18694372.242 14729536.685 10 0 59166 17100.00000 0 9563741.265 20309784.087 12111819.106 10 0 59166 18000.00000 0 9986321.120 21564855.996 9258820.043 10 0 59166 18900.00000 0 10397434.531 22438284.844 6225890.039 10 0 59166 19800.00000 0 10740072.163 22921920.484 3071923.940 10 0 59166 20700.00000 0 10958069.167 23020963.403 -141782.941 10 0 59166 21600.00000 0 10998693.344 22753617.147 -3352729.646 10 0 59166 22500.00000 0 10815101.398 22150209.689 -6498431.654 10 0 59166 23400.00000 0 10368557.881 21251820.448 -9517645.517 10 0 59166 24300.00000 0 9630321.147 20108470.925 -12351571.167 10 0 59166 25200.00000 0 8583114.679 18776955.585 -14945007.355 10 0 59166 26100.00000 0 7222119.728 17318405.089 -17247436.515 10 0 59166 27000.00000 0 5555445.665 15795685.403 -19214016.984 10 0 59166 27900.00000 0 3604056.571 14270743.196 -20806462.568 10 0 59166 28800.00000 0 1401156.004 12802010.122 -21993791.790 10 0 59166 29700.00000 0 -1008945.273 11441975.788 -22752932.155 10 0 59166 30600.00000 0 -3572431.876 10235031.716 -23069167.755 10 0 59166 31500.00000 0 -6227990.017 9215676.914 -22936421.798 10 0 59166 32400.00000 0 -8909133.859 8407159.931 -22357369.069 10 0 59166 33300.00000 0 -11546755.123 7820613.655 -21343376.609 10 0 59166 34200.00000 0 -14071789.689 7454718.087 -19914274.356 10 0 59166 35100.00000 0 -16417890.291 7295903.883 -18097960.726 10 0 59166 36000.00000 0 -18523994.210 7319086.614 -15929851.258 10 0 59166 36900.00000 0 -20336679.333 7488899.298 -13452181.541 10 0 59166 37800.00000 0 -21812211.010 7761369.783 -10713178.406 10 0 59166 38700.00000 0 -22918195.169 8085970.894 -7766115.838 10 0 59166 39600.00000 0 -23634769.688 8407955.676 -4668274.491 10 0 59166 40500.00000 0 -23955285.520 8670878.181 -1479825.348 10 0 59166 41400.00000 0 -23886450.518 8819192.648 1737340.412 10 0 59166 42300.00000 0 -23447931.364 8800820.849 4920812.264 10 0 59166 43200.00000 0 -22671431.758 8569578.940 8008868.468 10 0 59166 44100.00000 0 -21599286.723 8087361.346 10941668.066 10 0 59166 45000.00000 0 -20282633.075 7325989.615 13662403.840 10 0 59166 45900.00000 0 -18779233.307 6268648.422 16118394.381 10 0 59166 46800.00000 0 -17151044.249 4910848.220 18262094.836 10 0 59166 47700.00000 0 -15461632.220 3260873.862 20052007.661 10 0 59166 48600.00000 0 -13773542.250 1339699.817 21453476.820 10 0 59166 49500.00000 0 -12145730.416 -819625.405 22439351.129 10 0 59166 50400.00000 0 -10631165.474 -3173101.187 22990504.827 10 0 59166 51300.00000 0 -9274698.752 -5667357.935 23096206.069 10 0 59166 52200.00000 0 -8111290.055 -8241637.419 22754326.646 10 0 59166 53100.00000 0 -7164662.709 -10830089.883 21971388.863 10 0 59166 54000.00000 0 -6446443.230 -13364294.493 20762448.338 10 0 59166 54900.00000 0 -5955821.153 -15775900.226 19150814.151 10 0 59166 55800.00000 0 -5679743.259 -17999278.909 17167610.682 10 0 59166 56700.00000 0 -5593634.280 -19974081.189 14851188.303 10 0 59166 57600.00000 0 -5662614.213 -21647589.677 12246392.875 10 0 59166 58500.00000 0 -5843161.617 -22976771.231 9403706.950 10 0 59166 59400.00000 0 -6085153.187 -23929942.410 6378278.175 10 0 59166 60300.00000 0 -6334193.783 -24487977.820 3228852.948 10 0 59166 61200.00000 0 -6534138.360 -24645009.789 16635.726 10 0 59166 62100.00000 0 -6629698.597 -24408589.148 -3195903.777 10 0 59166 63000.00000 0 -6569022.961 -23799299.531 -6346251.899 10 0 59166 63900.00000 0 -6306139.642 -22849840.782 -9373076.085 10 0 59166 64800.00000 0 -5803157.310 -21603619.780 -12217428.895 10 0 59166 65700.00000 0 -5032128.700 -20112908.018 -14823906.320 10 0 59166 66600.00000 0 -3976496.405 -18436643.882 -17141736.653 10 0 59166 67500.00000 0 -2632057.959 -16637972.727 -19125777.771 10 0 59166 68400.00000 0 -1007407.849 -14781628.930 -20737402.672 10 0 59166 69300.00000 0 876163.545 -12931270.732 -21945255.501 10 0 59166 70200.00000 0 2985310.960 -11146880.415 -22725863.232 10 0 59166 71100.00000 0 5275789.222 -9482339.241 -23064091.196 10 0 59166 72000.00000 0 7694074.284 -7983278.937 -22953433.858 10 0 59166 72900.00000 0 10179382.930 -6685299.418 -22396135.694 10 0 59166 73800.00000 0 12666006.954 -5612626.648 -21403140.299 10 0 59166 74700.00000 0 15085864.420 -4777265.824 -19993869.283 10 0 59166 75600.00000 0 17371161.610 -4178683.888 -18195835.787 10 0 59166 76500.00000 0 19457054.790 -3804033.029 -16044100.600 10 0 59166 77400.00000 0 21284200.819 -3628903.985 -13580581.940 10 0 59166 78300.00000 0 22801090.581 -3618575.628 -10853232.756 10 0 59166 79200.00000 0 23966068.304 -3729706.470 -7915101.928 10 0 59166 80100.00000 0 24748953.112 -3912395.247 -4823298.076 10 0 59166 81000.00000 0 25132195.921 -4112522.309 -1637876.519 10 0 59166 81900.00000 0 25111524.407 -4274271.923 1579328.700 10 0 59166 82800.00000 0 24696050.169 -4342728.239 4765904.641 10 0 59166 83700.00000 0 23907834.839 -4266434.814 7860067.746 10 0 59166 84600.00000 0 22780934.450 -3999809.390 10801857.187 10 0 59166 85500.00000 0 21359962.999 -3505312.048 13534290.263 10 0 59167 0.00000 0 19698236.039 -2755275.408 16004457.945 10 0 59167 900.00000 0 17855572.142 -1733319.396 18164540.340 10 0 59167 1800.00000 0 15895844.266 -435292.337 19972722.567 10 0 59167 2700.00000 0 13884382.769 1130303.704 21393995.265 10 0 59167 3600.00000 0 11885337.396 2942419.627 22400824.694 10 0 59167 4500.00000 0 9959107.503 4968096.053 22973680.570 10 0 59167 5400.00000 0 8159946.112 7163604.364 23101412.206 10 0 59167 6300.00000 0 6533836.401 9476046.394 22781466.114 10 0 59167 7200.00000 0 5116727.901 11845347.954 22019940.901 10 0 59167 8100.00000 0 3933204.924 14206565.255 20831478.058 10 0 59167 9000.00000 0 2995641.976 16492410.184 19238989.969 10 0 59167 9900.00000 0 2303881.107 18635890.923 17273229.357 10 0 59167 10800.00000 0 1845444.472 20572959.291 14972207.161 10 0 59167 11700.00000 0 1596273.354 22245055.262 12380468.700 10 0 59167 12600.00000 0 1521962.878 23601442.707 9548240.847 10 0 59167 13500.00000 0 1579440.710 24601238.583 6530465.606 10 0 59167 14400.00000 0 1719019.155 25215049.961 3385738.014 10 0 59167 15300.00000 0 1886733.944 25426149.288 175168.651 10 0 59167 16200.00000 0 2026870.422 25231137.465 -3038807.082 10 0 59167 17100.00000 0 2084569.457 24640065.716 -6193649.386 10 0 59167 18000.00000 0 2008401.594 23676010.145 -9227939.487 10 0 59167 18900.00000 0 1752798.987 22374116.177 -12082585.226 10 0 59167 19800.00000 0 1280240.423 20780152.670 -14701982.213 10 0 59167 20700.00000 0 563095.250 18948636.524 -17035106.671 10 0 59167 21600.00000 0 -414953.574 16940606.900 -19036517.772 10 0 59167 22500.00000 0 -1657969.035 14821143.047 -20667249.168 10 0 59167 23400.00000 0 -3157343.322 12656730.581 -21895571.812 10 0 59167 24300.00000 0 -4891923.544 10512587.206 -22697613.073 10 0 59167 25200.00000 0 -6828675.554 8450060.338 -23057820.169 10 0 59167 26100.00000 0 -8923858.649 6524205.732 -22969259.178 10 0 59167 27000.00000 0 -11124662.313 4781648.197 -22433744.286 10 0 59167 27900.00000 0 -13371236.770 3258813.210 -21461795.272 10 0 59167 28800.00000 0 -15599032.412 1980602.418 -20072424.644 10 0 59167 29700.00000 0 -17741350.352 959567.006 -18292759.072 10 0 59167 30600.00000 0 -19731997.556 195611.814 -16157503.002 10 0 59167 31500.00000 0 -21507935.543 -323759.277 -13708255.345 10 0 59167 32400.00000 0 -23011812.135 -622669.063 -10992692.959 10 0 59167 33300.00000 0 -24194270.655 -735598.388 -8063637.182 10 0 59167 34200.00000 0 -25015940.358 -705678.443 -4978022.017 10 0 59167 35100.00000 0 -25449025.415 -582617.634 -1795784.404 10 0 59167 36000.00000 0 -25478426.669 -420351.863 1421301.541 10 0 59167 36900.00000 0 -25102350.026 -274518.433 4610823.323 10 0 59167 37800.00000 0 -24332376.960 -199860.983 7710938.471 10 0 59167 38700.00000 0 -23192995.063 -247675.422 10661569.162 10 0 59167 39600.00000 0 -21720609.093 -463404.781 13405560.027 10 0 59167 40500.00000 0 -19962074.490 -884484.408 15889777.193 10 0 59167 41400.00000 0 -17972814.914 -1538528.162 18066127.999 10 0 59167 42300.00000 0 -15814602.397 -2441931.883 19892482.451 10 0 59167 43200.00000 0 -13553092.292 -3598952.906 21333479.651 10 0 59167 44100.00000 0 -11255214.884 -5001304.664 22361204.658 10 0 59167 45000.00000 0 -8986531.298 -6628284.052 22955723.582 10 0 59167 45900.00000 0 -6808662.340 -8447427.374 23105467.393 10 0 59167 46800.00000 0 -4776895.824 -10415668.961 22807457.425 10 0 59167 47700.00000 0 -2938070.569 -12480955.824 22067368.325 10 0 59167 48600.00000 0 -1328823.862 -14584252.941 20899426.866 10 0 59167 49500.00000 0 25725.677 -16661857.529 19326147.857 10 0 59167 50400.00000 0 1112805.557 -18647927.514 17377911.191 10 0 59167 51300.00000 0 1932293.098 -20477120.183 15092386.927 10 0 59167 52200.00000 0 2496482.798 -22087231.934 12513818.113 10 0 59167 53100.00000 0 2829327.031 -23421729.181 9692173.954 10 0 59167 54000.00000 0 2965181.882 -24432064.535 6682188.587 10 0 59167 54900.00000 0 2947110.815 -25079680.628 3542303.254 10 0 59167 55800.00000 0 2824817.725 -25337616.524 333532.070 10 0 59167 56700.00000 0 2652297.025 -25191647.996 -2881726.606 10 0 59167 57600.00000 0 2485300.769 -24640912.374 -6040909.653 10 0 59167 58500.00000 0 2378730.973 -23697990.338 -9082514.939 10 0 59167 59400.00000 0 2384068.833 -22388440.098 -11947308.471 10 0 59167 60300.00000 0 2546951.248 -20749802.725 -14579488.307 10 0 59167 61200.00000 0 2904998.842 -18830120.004 -16927781.328 10 0 59167 62100.00000 0 3485989.055 -16686026.982 -18946450.533 10 0 59167 63000.00000 0 4306453.110 -14380499.455 -20596192.495 10 0 59167 63900.00000 0 5370757.461 -11980351.288 -21844906.892 10 0 59167 64800.00000 0 6670709.609 -9553586.847 -22668323.015 10 0 59167 65700.00000 0 8185705.848 -7166719.690 -23050471.091 10 0 59167 66600.00000 0 9883415.289 -4882169.875 -22983989.522 10 0 59167 67500.00000 0 11720971.872 -2755848.493 -22470262.524 10 0 59167 68400.00000 0 13646624.581 -835029.802 -21519386.034 10 0 59167 69300.00000 0 15601776.672 843400.988 -20149963.068 10 0 59167 70200.00000 0 17523328.460 2254252.383 -18388733.106 10 0 59167 71100.00000 0 19346225.465 3384830.832 -16270043.165 10 0 59167 72000.00000 0 21006105.064 4235212.710 -13835171.361 10 0 59167 72900.00000 0 22441930.791 4817974.779 -11131516.554 10 0 59167 73800.00000 0 23598504.024 5157396.620 -8211670.189 10 0 59167 74700.00000 0 24428747.931 5288170.598 -5132388.894 10 0 59167 75600.00000 0 24895668.331 5253675.646 -1953488.126 10 0 59167 76500.00000 0 24973909.720 5103889.261 1263321.303 10 0 59167 77400.00000 0 24650841.812 4893027.125 4455630.840 10 0 59167 78300.00000 0 23927131.706 4677010.940 7561542.613 10 0 59167 79200.00000 0 22816778.373 4510871.971 10520865.214 10 0 59167 80100.00000 0 21346608.608 4446200.152 13276273.804 10 0 59167 81000.00000 0 19555255.964 4528746.351 15774412.539 10 0 59167 81900.00000 0 17491665.514 4796278.687 17966918.670 10 0 59167 82800.00000 0 15213186.765 5276782.940 19811349.285 10 0 59167 83700.00000 0 12783333.781 5987082.552 21271993.807 10 0 59167 84600.00000 0 10269304.956 6931936.266 22320557.568 10 0 59167 85500.00000 0 7739364.560 8103651.559 22936704.161 10 0 59168 0.00000 0 5260193.545 9482230.738 23108446.882 10 0 59168 900.00000 0 2894318.142 11036045.051 22832382.107 10 0 59168 1800.00000 0 697721.448 12723009.103 22113760.316 10 0 59168 2700.00000 0 -1282263.486 14492209.644 20966392.887 10 0 59168 3600.00000 0 -3008693.886 16285921.216 19412395.939 10 0 59168 4500.00000 0 -4456318.140 18041926.947 17481775.016 10 0 59168 5400.00000 0 -5612384.349 19696048.796 15211857.408 10 0 59168 6300.00000 0 -6476922.967 21184782.705 12646581.687 10 0 59168 7200.00000 0 -7062491.734 22447928.972 9835656.927 10 0 59168 8100.00000 0 -7393393.633 23431107.803 6833606.721 10 0 59168 9000.00000 0 -7504400.670 24088054.100 3698715.665 10 0 59168 9900.00000 0 -7439037.193 24382594.171 491898.423 10 0 59168 10800.00000 0 -7247495.421 24290219.998 -2724486.732 10 0 59168 11700.00000 0 -6984271.730 23799193.322 -5887856.423 10 0 59168 12600.00000 0 -6705624.456 22911131.489 -8936628.156 10 0 59168 13500.00000 0 -6466961.886 21641048.936 -11811428.954 10 0 59168 14400.00000 0 -6320272.380 20016851.331 -14456261.957 10 0 59168 15300.00000 0 -6311706.847 18078302.726 -16819607.060 10 0 59168 16200.00000 0 -6479417.425 15875508.597 -18855433.153 10 0 59168 17100.00000 0 -6851745.202 13466978.177 -20524101.472 10 0 59168 18000.00000 0 -7445834.828 10917347.473 -21793141.871 10 0 59168 18900.00000 0 -8266735.567 8294858.481 -22637886.713 10 0 59168 19800.00000 0 -9307027.509 5668700.301 -23041950.081 10 0 59168 20700.00000 0 -10546989.172 3106323.466 -22997543.225 10 0 59168 21600.00000 0 -11955299.788 670839.544 -22505620.583 10 0 59168 22500.00000 0 -13490246.801 -1581385.838 -21575854.051 10 0 59168 23400.00000 0 -15101387.796 -3602846.780 -20226436.574 10 0 59168 24300.00000 0 -16731596.881 -5356630.602 -18483719.447 10 0 59168 25200.00000 0 -18319409.451 -6817700.141 -16381690.881 10 0 59168 26100.00000 0 -19801566.630 -7973672.987 -13961306.471 10 0 59168 27000.00000 0 -21115652.456 -8825067.081 -11269685.045 10 0 59168 27900.00000 0 -22202712.990 -9385004.583 -8359185.887 10 0 59168 28800.00000 0 -23009747.352 -9678388.543 -5286385.763 10 0 59168 29700.00000 0 -23491966.226 -9740589.134 -2110975.983 10 0 59168 30600.00000 0 -23614723.228 -9615696.616 1105398.741 10 0 59168 31500.00000 0 -23355038.396 -9354416.194 4300336.740 10 0 59168 32400.00000 0 -22702650.264 -9011694.810 7411887.764 10 0 59168 33300.00000 0 -21660552.868 -8644180.787 10379749.893 10 0 59168 34200.00000 0 -20244995.535 -8307623.921 13146431.861 10 0 59168 35100.00000 0 -18484945.759 -8054325.784 15658358.787 10 0 59168 36000.00000 0 -16421037.649 -7930747.482 17866900.555 10 0 59168 36900.00000 0 -14104049.687 -7975375.278 19729303.744 10 0 59168 37800.00000 0 -11592974.724 -8216933.474 21209510.110 10 0 59168 38700.00000 0 -8952761.676 -8673019.361 22278846.832 10 0 59168 39600.00000 0 -6251821.739 -9349217.465 22916576.079 10 0 59168 40500.00000 0 -3559401.300 -10238730.472 23110294.088 10 0 59168 41400.00000 0 -942928.975 -11322542.964 22856172.505 10 0 59168 42300.00000 0 1534554.616 -12570112.081 22159037.414 10 0 59168 43200.00000 0 3816779.258 -13940557.572 21032284.268 10 0 59168 44100.00000 0 5856342.170 -15384303.024 19497629.623 10 0 59168 45000.00000 0 7616433.467 -16845101.188 17584703.498 10 0 59168 45900.00000 0 9072119.080 -18262360.186 15330488.950 10 0 59168 46800.00000 0 10211128.082 -19573674.410 12778618.323 10 0 59168 47700.00000 0 11034111.659 -20717454.852 9978538.502 10 0 59168 48600.00000 0 11554362.940 -21635548.828 6984560.193 10 0 59168 49500.00000 0 11797009.343 -22275738.832 3854808.758 10 0 59168 50400.00000 0 11797711.321 -22594014.663 650096.612 10 0 59168 51300.00000 0 11600922.451 -22556522.027 -2567260.995 10 0 59168 52200.00000 0 11257784.592 -22141103.969 -5734663.432 10 0 59168 53100.00000 0 10823747.655 -21338368.505 -8790450.845 10 0 59168 54000.00000 0 10356015.497 -20152235.751 -11675114.208 10 0 59168 54900.00000 0 9910927.171 -18599939.893 -14332464.569 10 0 59168 55800.00000 0 9541385.618 -16711484.617 -16710737.474 10 0 59168 56700.00000 0 9294443.945 -14528573.925 -18763610.104 10 0 59168 57600.00000 0 9209152.689 -12103062.537 -20451110.454 10 0 59168 58500.00000 0 9314760.197 -9494990.641 -21740400.284 10 0 59168 59400.00000 0 9629343.038 -6770285.178 -22606416.365 10 0 59168 60300.00000 0 10158924.926 -3998223.847 -23032357.552 10 0 59168 61200.00000 0 10897121.643 -1248767.939 -23010008.462 10 0 59168 62100.00000 0 11825327.062 1410124.778 -22539893.897 10 0 59168 63000.00000 0 12913432.317 3915095.297 -21631261.520 10 0 59168 63900.00000 0 14121047.591 6209778.955 -20301893.703 10 0 59168 64800.00000 0 15399174.743 8246902.409 -18577752.778 10 0 59168 65700.00000 0 16692260.029 9989995.718 -16492467.080 10 0 59168 66600.00000 0 17940540.114 11414649.553 -14086668.315 10 0 59168 67500.00000 0 19082582.375 12509266.839 -11407193.577 10 0 59168 68400.00000 0 20057912.320 13275279.405 -8506167.944 10 0 59168 69300.00000 0 20809617.400 13726822.682 -5439985.935 10 0 59168 70200.00000 0 21286817.618 13889884.222 -2268212.027 10 0 59168 71100.00000 0 21446899.042 13800963.879 947578.103 10 0 59168 72000.00000 0 21257416.470 13505303.729 4144992.764 10 0 59168 72900.00000 0 20697585.495 13054763.775 7262032.486 10 0 59168 73800.00000 0 19759301.553 12505433.979 10238287.960 10 0 59168 74700.00000 0 18447643.458 11915083.908 13016104.510 10 0 59168 75600.00000 0 16780840.402 11340557.689 15541691.049 10 0 59168 76500.00000 0 14789703.746 10835223.895 17766152.705 10 0 59168 77400.00000 0 12516547.053 10446587.282 19646427.900 10 0 59168 78300.00000 0 10013638.800 10214162.300 21146112.786 10 0 59168 79200.00000 0 7341251.273 10167697.138 22236158.130 10 0 59168 80100.00000 0 4565385.615 10325822.427 22895426.059 10 0 59168 81000.00000 0 1755266.059 10695181.046 23111096.747 10 0 59168 81900.00000 0 -1019294.355 11270075.642 22878917.635 10 0 59168 82800.00000 0 -3690548.902 12032649.128 22203290.502 10 0 59168 83700.00000 0 -6195384.690 12953591.449 21097194.440 10 0 59168 84600.00000 0 -8477697.549 13993344.216 19581945.529 10 0 59168 85500.00000 0 -10490476.758 15103754.074 17686796.885 99